Location: Unspecified
(0.0000°N, 0.0000°E)
Time: 08:42:25
(UTC+00:00)

SR - Pass Details

Date: 19 December 2018
Orbit: 584 x 872 km, 66.7° (Epoch: 23 March)

Event Time Altitude Azimuth Distance (km) Brightness Sun altitude
Rises 22:10:47 0° 168° (SSE) 3,420 - -55.1°
Reaches altitude 10° 22:14:12 10° 148° (SSE) 2,506 - -55.7°
Maximum altitude 22:17:46 17° 110° (ESE) 2,083 - -56.3°
Drops below altitude 10° 22:21:20 10° 72° (ENE) 2,510 - -57.0°
Sets 22:24:44 0° 52° (NE) 3,429 - -57.5°
